Location: Clarks Summit,Pa.
(41.5000°N, 75.6000°W)
Time: 10:56:34
(UTC-05:00)

Tiangong - Visible Passes

Search period start: 03 December 2022 00:00
Search period end: 13 December 2022 00:00
Orbit: 386 x 394 km, 41.5° (Epoch: 02 December)

Date Brightness Start Highest point End Pass type
(mag) Time Alt. Az. Time Alt. Az. Time Alt. Az.
03 Dec -1.1 18:33:26 10° W 18:35:49 47° W 18:35:49 47° W visible
04 Dec -2.1 17:35:25 10° W 17:38:36 83° S 17:40:33 22° E visible
04 Dec 1.2 19:12:22 10° W 19:12:52 14° W 19:12:52 14° W visible
05 Dec -2.3 18:14:17 10° W 18:17:29 90° E 18:17:34 84° E visible
06 Dec -2.2 17:16:10 10° W 17:19:21 88° N 17:22:17 12° E visible
06 Dec 0.3 18:53:07 10° W 18:54:36 24° W 18:54:36 24° W visible
07 Dec -2.1 17:54:57 10° W 17:58:08 76° S 17:59:21 34° ESE visible
08 Dec -2.1 16:56:44 10° W 16:59:55 89° SSW 17:03:08 10° E visible
08 Dec -0.8 18:33:45 10° W 18:36:28 37° SW 18:36:28 37° SW visible
09 Dec -1.5 17:35:26 10° W 17:38:34 55° SSW 17:41:22 12° ESE visible
09 Dec 1.3 19:13:11 10° WSW 19:13:42 12° WSW 19:13:42 12° WSW visible
10 Dec 0.1 18:14:22 10° W 18:16:58 23° SSW 18:18:44 15° SSE visible
11 Dec -0.5 17:15:48 10° W 17:18:45 35° SSW 17:21:41 10° SE visible
12 Dec 0.9 17:55:15 10° WSW 17:56:56 14° SSW 17:58:38 10° S visible
